Zurück zum Katalog

FENGYUN 1C DEB

AktivSSO
NORAD 30357·DEBRIS·🇨🇳 China

Gestartet May 10, 1999 von Taiyuan Satellite Launch Center

Loading…

Nächste Überflüge (nächste 24 Stunden)

TLE

AktuellSource: Space-Track

Epoche: Sep 14, 2026, 07:26 UTC

1 30357U 99025ABU 26257.31003566  .00000142  00000-0  11279-3 0  9999
2 30357  98.7824 281.2572 0048227 276.2612 146.5180 14.05374123  6724

Verfolge FENGYUN 1C DEB in Echtzeit mit AllMySat

Download on the App Store